Lexington Weather

Lexington, Massachusetts, USA

41°F
4/22/2024 8:12am 
  • Lexington Conditions: Clear
  • Temperature: 40.6°F / 4.8°CWarmer 3.0°F than last hour.
  • Dew Point: 27.9°FDecreased 1.4°Fsince last hour.
  • Relative Humidity: 60%Decreased 12.0% since last hour.
  • Wind: Calm, 10-min avg: Calm, gust: 1 mph
  • Barometer: 29.95 in Steady
  • Visibility: 10 miles
  • Rain Today: 0.00 in
  •   

Regional Weather Roundup
for Boston, MA

        
000
ASUS41 KBOX 200010
RWRBOX

REGIONAL WEATHER ROUNDUP
NATIONAL WEATHER SERVICE BOSTON/NORTON MA
800 PM EDT FRI APR 19 2024

NOTE:  "FAIR" INDICATES FEW OR NO CLOUDS BELOW 12,000 FEET WITH NO 
SIGNIFICANT WEATHER AND/OR OBSTRUCTIONS TO VISIBILITY.

MAZALL-200100-
EASTERN MASSACHUSETTS
  
CITY           SKY/WX    TMP DP  RH WIND       PRES   REMARKS
BOSTON         CLOUDY    50  36  58 S15       30.07S                  
6HR MIN TEMP:  50; 6HR MAX TEMP:  54;                                

BEVERLY        PTCLDY    48  37  65 SE13      30.05F                  
LAWRENCE       CLEAR     50  35  56 S5        30.06S                  
BEDFORD        CLEAR     51  32  48 SW12G23   30.05R                  
NORWOOD        CLEAR     53  36  52 S9        30.07F                  
MARSHFIELD     CLEAR     50  34  53 S7        30.09S                  
PLYMOUTH       CLEAR     48  38  68 S6        30.08F                  
TAUNTON        CLEAR     50  36  58 VRB7      30.09F                  
NEW BEDFORD    CLEAR     49  37  63 S9        30.09F                  
$$

MAZALL-200100-
CAPE COD AND THE ISLANDS
  
CITY           SKY/WX    TMP DP  RH WIND       PRES   REMARKS
FALMOUTH       CLEAR     45  39  81 SE6       30.10S                  
HYANNIS        CLEAR     45  37  73 VRB5      30.10R                  
CHATHAM        CLEAR     45  38  76 S3        30.12R                  
PROVINCETOWN   CLEAR     46  40  79 S6        30.11R                  
NANTUCKET      CLEAR     44  39  82 SE12      30.10R                  
MARTHAS VNYRD  CLEAR     46  41  82 SE7       30.10R                  
$$
 
MAZALL-200100-
CENTRAL AND WESTERN MASSACHUSETTS
  
CITY           SKY/WX    TMP DP  RH WIND       PRES   REMARKS
WORCESTER      MOCLDY    49  30  48 S12       30.05R                  
6HR MIN TEMP:  49; 6HR MAX TEMP:  58;                                

FITCHBURG      PTCLDY    53  31  42 S12G25    30.04R                  
ORANGE         CLOUDY    53  30  41 S12G20    30.04R                  
SPRINGFIELD    NOT AVBL                                               
WESTFIELD      CLOUDY    51  36  56 S12       30.04R                  
NORTH ADAMS    CLOUDY    55  35  47 VRB6      30.00R                  
PITTSFIELD     CLOUDY    50  36  58 VRB3      30.00R                  
$$
 
RIZALL-200100-
RHODE ISLAND
  
CITY           SKY/WX    TMP DP  RH WIND       PRES   REMARKS
PROVIDENCE     MOCLDY    47  41  80 S9        30.09F                  
6HR MIN TEMP:  47; 6HR MAX TEMP:  57;                                

NEWPORT        CLEAR     45  40  82 SE9       30.08F                  
BLOCK ISLAND   PTCLDY    43  41  93 SE7       30.10F                  
SMITHFIELD     CLEAR     47  34  60 VRB3      30.08F                  
WESTERLY       CLEAR     46  41  82 SE6       30.10S                  
$$
 
CTZALL-200100-
CONNECTICUT
  
CITY           SKY/WX    TMP DP  RH WIND       PRES   REMARKS
BRADLEY INTL   MOCLDY    52  38  58 S12       30.05S                  
6HR MIN TEMP:  52; 6HR MAX TEMP:  63;                                

HARTFORD       PTCLDY    50  40  68 SE8       30.06S                  
PLAINVILLE     CLOUDY    51  43  74 S10       30.06R                  
BRIDGEPORT     CLOUDY    50  44  80 S8        30.08R                  
DANBURY        MOCLDY    51  41  68 S7        30.06S                  
GROTON         PTCLDY    47  43  86 SE7       30.09S                  
NEW HAVEN      CLOUDY    51  45  79 SE8       30.08S                  
CHESTER        PTCLDY    46  43  87 SE5       30.08S                  
MERIDEN        CLOUDY    50  40  68 S9        30.07F                  
WILLIMANTIC    PTCLDY    48  39  71 S6        30.08R                  
OXFORD         CLOUDY    46  43  87 S10       30.06F                  
$$

MEZ002-015-021-024-NHZ003-005-008-011-012-014-VTZ005-008-200100-
NORTHERN NEW ENGLAND
  
CITY           SKY/WX    TMP DP  RH WIND       PRES   REMARKS
PORTLAND ME    CLOUDY    46  36  68 S8        30.06F                  
6HR MIN TEMP:  46; 6HR MAX TEMP:  51;                                

BANGOR ME      CLOUDY    47  35  63 S13       30.05S                  
CONCORD NH     CLOUDY    51  36  56 SE10      30.01S                  
MANCHESTER NH  CLOUDY    53  35  50 SE9       30.00F                  
NASHUA NH      MOCLDY    54  33  45 S7        30.04R                  
PORTSMOUTH NH  NOT AVBL                                               
JAFFREY NH     CLOUDY    54  31  41 S7        30.02R                  
KEENE NH       CLOUDY    54  31  41 SW13      30.01R                  
BURLINGTON VT  CLOUDY    56  43  61 S18G32    29.88R                  
MT. WASHINGTON FOG       28  28 100 SW14G49     N/A  VSB 0   WCI  17  
$$

NYZ052-076-200100-
EASTERN NEW YORK
  
CITY           SKY/WX    TMP DP  RH WIND       PRES   REMARKS
ALBANY         CLOUDY    57  42  57 S15G30    29.97S                  
6HR MIN TEMP:  56; 6HR MAX TEMP:  62; 6HR PCP: TRACE;                

NEW YORK CITY  CLOUDY    49  41  74 SE6       30.07S                  
6HR MIN TEMP:  49; 6HR MAX TEMP:  57;                                

$$
 
ANZALL-200100-
MARINE OBSERVATIONS
  
STATION/POSITION TIME  TEMP    WIND        PRES    VSBY  WAVE
                       AIR SEA DIR/SP/G                  HT/PER
                 (UTC) (F)     (DEG/KT/KT) (MB)    (MI)  (FT/S)
BOSTON BUOY      2350   47     160/ 14/ 16 1018.4S         2/ 3
BUZZARDS BAY     2300   45     130/ 12/ 13 1019.6F
NANTUCKET SOUND  2350   47 48  150/  8/ 10 1019.1R         1/ 4
MASS BAY-STELLWA 2204   47 46  150/ 16/ 19 1018.7F  1 7/8  3/ 4
ISLE OF SHOALS   2300   47     150/ 22/ 25 1017.3S
S OF BLOCK IS    2356      45                N/A           5/ 8
$$

......................KEY.........................
  SKY/WX - SKY CONDITION/PRESENT WEATHER
  TMP    - TEMPERATURE IN FAHRENHEIT
  DWPT   - DEWPOINT IN FAHRENHEIT
  RH     - RELATIVE HUMIDITY IN PERCENT
  WIND   - DIRECTION AND SPEED IN MPH
  PRES   - MEAN SEA LEVEL PRESSURE IN INCHES OF HG
  WCI    - WIND CHILL INDEX
  VSB    - VISIBILITY IN MILES
  HX     - HEAT INDEX
  TC     - TEMPERATURE IN CELSIUS
  VRB    - VARIABLE WIND DIRECTION
  N/A    - NOT AVAILABLE
  
      

Other recent Regional Weather Roundups

Mon Apr 22, 8:10am EDT

Mon Apr 22, 7:10am EDT

Mon Apr 22, 6:10am EDT

Mon Apr 22, 5:10am EDT

Mon Apr 22, 4:10am EDT

Mon Apr 22, 3:10am EDT

Mon Apr 22, 2:10am EDT

Mon Apr 22, 1:10am EDT

Mon Apr 22, 12:10am EDT

Sun Apr 21, 11:10pm EDT

Sun Apr 21, 10:10pm EDT

Sun Apr 21, 9:10pm EDT

Sun Apr 21, 8:10pm EDT

Sun Apr 21, 7:10pm EDT

Sun Apr 21, 6:10pm EDT

Sun Apr 21, 5:10pm EDT

Sun Apr 21, 4:10pm EDT

Sun Apr 21, 3:10pm EDT

Sun Apr 21, 2:10pm EDT

Sun Apr 21, 1:10pm EDT

Sun Apr 21, 12:10pm EDT

Sun Apr 21, 11:10am EDT

Sun Apr 21, 10:10am EDT

Sun Apr 21, 9:10am EDT

Sun Apr 21, 8:10am EDT

Sun Apr 21, 7:10am EDT

Sun Apr 21, 6:10am EDT

Sun Apr 21, 5:10am EDT

Sun Apr 21, 4:10am EDT

Sun Apr 21, 3:10am EDT

Sun Apr 21, 2:10am EDT

Sun Apr 21, 1:10am EDT

Sun Apr 21, 12:10am EDT

Sat Apr 20, 11:10pm EDT

Sat Apr 20, 10:10pm EDT

Sat Apr 20, 9:10pm EDT

Sat Apr 20, 8:10pm EDT

Sat Apr 20, 7:10pm EDT

Sat Apr 20, 6:10pm EDT

Sat Apr 20, 5:10pm EDT

Sat Apr 20, 4:10pm EDT

Sat Apr 20, 3:10pm EDT

Sat Apr 20, 2:10pm EDT

Sat Apr 20, 1:10pm EDT

Sat Apr 20, 12:10pm EDT

Sat Apr 20, 11:10am EDT

Sat Apr 20, 10:10am EDT

Sat Apr 20, 9:10am EDT

Sat Apr 20, 8:10am EDT

Sat Apr 20, 7:10am EDT

Sat Apr 20, 6:10am EDT

Sat Apr 20, 5:10am EDT

Sat Apr 20, 4:10am EDT

Sat Apr 20, 3:10am EDT

Sat Apr 20, 2:10am EDT

Sat Apr 20, 1:10am EDT

Sat Apr 20, 12:10am EDT

Fri Apr 19, 11:10pm EDT

Fri Apr 19, 10:10pm EDT

Fri Apr 19, 9:10pm EDT

Fri Apr 19, 7:10pm EDT

Fri Apr 19, 6:10pm EDT

Fri Apr 19, 5:10pm EDT

Fri Apr 19, 4:10pm EDT

Fri Apr 19, 3:10pm EDT

Fri Apr 19, 2:10pm EDT

Fri Apr 19, 1:10pm EDT

Fri Apr 19, 12:10pm EDT

Fri Apr 19, 11:10am EDT

Fri Apr 19, 10:10am EDT

Fri Apr 19, 9:10am EDT

Fri Apr 19, 8:10am EDT

Fri Apr 19, 7:10am EDT

Fri Apr 19, 6:10am EDT

Fri Apr 19, 5:10am EDT

Fri Apr 19, 4:10am EDT

Fri Apr 19, 3:10am EDT

Fri Apr 19, 2:10am EDT

Fri Apr 19, 1:10am EDT

Fri Apr 19, 12:10am EDT

Thu Apr 18, 11:10pm EDT

Thu Apr 18, 10:10pm EDT

Thu Apr 18, 9:10pm EDT

Thu Apr 18, 8:10pm EDT

Thu Apr 18, 7:10pm EDT

Thu Apr 18, 6:10pm EDT

Thu Apr 18, 5:10pm EDT

Thu Apr 18, 4:10pm EDT

Thu Apr 18, 3:10pm EDT

Thu Apr 18, 2:10pm EDT

Thu Apr 18, 1:10pm EDT

Thu Apr 18, 12:10pm EDT

Thu Apr 18, 11:10am EDT

Thu Apr 18, 10:10am EDT

Thu Apr 18, 9:10am EDT

Thu Apr 18, 8:10am EDT

Thu Apr 18, 7:10am EDT

Thu Apr 18, 6:10am EDT

Thu Apr 18, 5:10am EDT

Thu Apr 18, 4:10am EDT

Thu Apr 18, 3:10am EDT

Thu Apr 18, 2:10am EDT

Thu Apr 18, 1:10am EDT

Thu Apr 18, 12:10am EDT

Wed Apr 17, 11:10pm EDT

Wed Apr 17, 10:10pm EDT

Wed Apr 17, 9:10pm EDT

Wed Apr 17, 8:10pm EDT

Wed Apr 17, 7:10pm EDT

Wed Apr 17, 6:10pm EDT

Wed Apr 17, 5:10pm EDT

Wed Apr 17, 4:10pm EDT

Wed Apr 17, 3:10pm EDT

Wed Apr 17, 2:10pm EDT

Wed Apr 17, 1:10pm EDT

Wed Apr 17, 12:10pm EDT

Wed Apr 17, 11:10am EDT

Wed Apr 17, 10:10am EDT

Wed Apr 17, 9:10am EDT

Wed Apr 17, 8:10am EDT

Wed Apr 17, 7:10am EDT

Wed Apr 17, 6:10am EDT

Wed Apr 17, 5:10am EDT

Wed Apr 17, 4:10am EDT

Wed Apr 17, 3:10am EDT

Wed Apr 17, 2:10am EDT

Wed Apr 17, 1:10am EDT

Wed Apr 17, 12:10am EDT

Tue Apr 16, 11:10pm EDT

Tue Apr 16, 10:10pm EDT

Tue Apr 16, 9:10pm EDT

Tue Apr 16, 8:10pm EDT

Tue Apr 16, 7:10pm EDT

Tue Apr 16, 6:10pm EDT

Tue Apr 16, 5:10pm EDT

Tue Apr 16, 4:10pm EDT

Tue Apr 16, 3:10pm EDT

Tue Apr 16, 2:10pm EDT

Tue Apr 16, 1:10pm EDT

Tue Apr 16, 12:10pm EDT

Tue Apr 16, 11:10am EDT

Tue Apr 16, 10:10am EDT

Tue Apr 16, 9:10am EDT

Tue Apr 16, 8:10am EDT

Tue Apr 16, 7:10am EDT

Tue Apr 16, 6:10am EDT

Tue Apr 16, 5:10am EDT

Tue Apr 16, 4:10am EDT

Tue Apr 16, 3:10am EDT

Tue Apr 16, 2:10am EDT

Tue Apr 16, 1:10am EDT

Tue Apr 16, 12:10am EDT

Mon Apr 15, 11:10pm EDT

Mon Apr 15, 10:10pm EDT

Mon Apr 15, 9:10pm EDT

Mon Apr 15, 8:10pm EDT

Mon Apr 15, 7:10pm EDT

Mon Apr 15, 6:10pm EDT

Mon Apr 15, 5:10pm EDT

Mon Apr 15, 4:10pm EDT

Mon Apr 15, 3:10pm EDT

Mon Apr 15, 2:10pm EDT

Mon Apr 15, 1:10pm EDT

Mon Apr 15, 12:10pm EDT

Mon Apr 15, 11:10am EDT

Mon Apr 15, 10:10am EDT

Mon Apr 15, 9:10am EDT